Temperature
21 18 18 19 19 20 20 19 19 19 20 19 18 18 18 18 18 18 18 18 18 18 19 18 18 18 18 18 17 17 17 17 16 16 16 16 16 15 15 15 15 15 15 15
18 19 20 21 21 20 20 19 19 20 20 20 18 18 17 17 18 18 18 18 18 18 18 18 18 18 18 18 17 17 17 17 16 16 16 16 15 15 15 15 15 15 15 15
19 20 21 21 21 20 20 19 19 19 19 19 18 17 17 17 18 18 18 19 18 18 18 18 18 18 18 18 17 17 17 16 16 16 16 15 15 15 15 15 15 14 14 14
19 20 21 21 20 20 19 20 20 20 18 17 18 16 16 17 17 17 17 18 18 18 18 18 18 18 18 18 17 17 16 16 16 16 15 15 15 15 15 14 14 14 14 14
19 20 20 20 21 21 20 20 20 19 18 17 17 16 16 16 16 16 17 17 18 18 18 18 18 18 17 17 17 17 16 16 16 15 15 15 15 15 14 14 14 14 14 14
19 21 21 21 21 21 20 19 18 16 16 16 17 16 16 15 16 17 17 17 18 18 18 18 18 17 17 17 17 16 16 16 15 15 15 15 15 14 14 14 14 14 14 14
19 20 21 21 20 20 19 16 16 16 15 15 16 16 16 17 17 17 17 17 18 18 18 18 17 17 17 17 16 16 16 15 15 15 15 15 14 14 14 14 14 14 13 13
17 18 19 20 20 19 18 17 16 16 15 15 16 16 16 18 18 18 18 18 18 18 17 18 17 17 17 16 16 16 15 15 15 15 15 14 14 14 14 14 14 14 13 13
17 17 19 20 20 19 18 17 16 15 16 15 15 16 17 17 17 17 17 17 17 17 17 17 17 17 17 16 16 16 15 15 15 14 14 14 14 14 14 14 13 13 13 13
17 17 18 19 20 19 18 17 15 15 15 15 16 16 16 16 16 16 16 16 16 16 17 17 17 17 16 16 16 15 15 15 15 14 14 14 14 13 13 13 13 13 13 13
17 16 17 18 18 18 18 17 16 14 14 14 15 15 17 16 16 15 15 16 16 16 16 16 16 16 16 16 15 15 15 14 14 14 14 13 13 13 13 13 13 13 13 13
16 14 15 16 17 18 18 17 15 15 15 14 13 15 17 16 16 16 16 16 16 16 16 16 16 16 15 15 15 14 14 14 14 14 13 13 13 13 13 13 13 13 13 13
16 14 14 15 16 17 17 17 16 14 13 13 13 15 16 16 16 16 16 16 16 16 16 15 15 15 15 15 14 14 14 13 13 13 13 13 13 13 12 12 12 12 12 12
16 14 14 15 15 15 16 17 16 15 13 13 14 15 16 15 15 15 16 16 16 15 15 15 15 15 15 14 14 14 13 13 13 13 13 13 12 12 12 12 12 12 12 12
15 14 15 15 16 16 16 16 16 16 15 14 15 15 15 15 15 15 16 16 15 15 15 14 14 14 14 14 14 13 13 13 13 12 12 12 12 12 12 12 12 12 12 12
14 14 15 15 16 16 16 16 16 16 16 15 15 15 15 16 16 15 15 15 15 15 14 14 14 14 14 14 14 13 13 13 13 12 12 12 12 12 12 12 11 11 11 11
13 14 14 13 15 15 15 15 16 15 15 15 15 15 15 14 15 15 15 15 15 15 15 14 14 14 14 14 13 13 13 12 12 12 12 12 11 11 11 11 11 11 11 11
13 12 12 12 14 14 15 15 15 15 15 15 14 14 14 15 16 16 16 15 15 15 15 15 14 14 14 14 13 13 13 12 12 12 11 11 11 11 11 11 11 11 10 11
12 12 11 11 12 13 14 15 15 15 14 14 14 14 14 15 15 14 15 15 15 15 15 14 14 14 14 13 13 13 12 12 12 11 11 11 11 10 10 10 10 10 10 10
12 12 11 11 12 13 14 15 16 15 14 14 14 13 13 14 12 12 15 15 15 14 14 14 14 13 13 13 13 12 12 11 11 11 11 11 10 10 10 10 10 10 10 10
12 11 11 11 11 12 13 15 15 14 13 14 14 14 14 13 13 14 14 14 14 14 14 14 13 13 13 12 12 12 12 11 11 11 11 10 10 10 10 10 9 9 9 9
12 11 11 10 11 12 14 14 13 13 14 15 14 14 14 14 14 14 14 14 14 14 13 13 13 13 12 12 12 11 11 11 11 11 10 10 10 10 9 9 9 9 9 9
11 11 10 10 11 13 14 14 15 15 14 14 14 14 14 13 13 13 13 13 13 13 13 12 12 12 12 11 11 11 11 11 10 10 10 10 10 9 9 9 9 9 8 8
10 10 10 10 11 12 13 14 14 14 14 14 14 14 14 13 13 13 13 13 13 13 12 12 12 11 11 11 11 10 10 10 10 10 9 9 9 9 8 8 8 8 8 8
10 10 9 9 10 12 12 13 13 13 13 13 13 13 13 13 12 12 12 12 12 12 12 12 11 11 11 11 10 10 10 10 9 9 9 9 8 8 8 8 8 8 8 8
9 10 9 9 11 10 11 12 12 12 12 13 12 12 12 12 12 12 12 12 12 11 11 11 11 11 10 10 10 10 10 9 9 9 9 8 8 8 8 8 7 7 7 7
Wind_Speed
2 4 2 6 6 4 4 3 3 5 3 2 4 4 5 5 5 5 6 5 6 7 6 5 5 5 6 5 5 5 4 3 4 3 3 2 1 1 1 2 4 5 5 5
4 2 6 4 3 2 2 2 2 3 2 2 2 3 4 5 7 8 8 8 8 6 4 5 5 5 5 6 5 4 4 4 3 2 2 2 2 1 1 1 2 3 4 4
4 6 4 2 1 1 2 4 4 3 2 2 1 4 4 4 3 4 6 7 7 8 8 7 6 5 5 6 6 5 4 4 3 3 3 3 3 2 2 2 0 1 3 3
3 4 1 1 2 3 4 5 4 2 1 2 2 3 6 4 3 4 5 5 6 6 6 6 6 6 6 6 6 6 5 4 3 4 4 4 3 1 1 1 1 0 2 2
3 2 1 2 4 4 5 4 2 2 3 1 1 2 6 2 3 7 7 7 7 7 7 7 7 7 6 6 6 5 5 4 4 3 4 4 3 2 1 0 1 0 0 1
4 3 3 4 3 2 1 4 5 5 3 2 4 4 5 4 7 6 7 7 7 8 7 6 5 4 4 4 5 5 5 4 4 4 4 4 4 3 2 1 1 1 1 1
4 4 2 1 1 3 5 5 4 4 3 5 3 3 6 6 6 7 8 9 8 7 7 6 6 5 5 5 5 5 5 3 3 4 4 4 4 4 4 3 3 2 1 1
0 5 4 1 4 3 2 7 6 4 4 4 2 3 5 4 3 3 5 6 6 6 7 7 8 7 6 6 5 6 5 4 3 3 3 2 3 2 2 3 3 3 3 3
2 5 5 3 2 6 3 3 6 5 2 2 4 4 5 3 3 1 3 4 5 6 6 7 7 6 7 6 6 7 6 4 3 3 2 2 2 2 2 2 2 2 3 3
4 3 5 3 3 2 4 5 5 3 2 3 4 4 4 4 3 1 2 4 4 3 4 5 6 6 6 6 5 5 6 5 4 3 3 2 1 1 2 2 2 2 2 2
3 3 4 3 2 4 1 2 4 3 4 4 3 6 4 5 4 4 4 4 5 5 5 5 5 5 5 5 4 4 4 4 3 3 3 2 1 1 1 2 2 1 1 2
3 4 2 6 5 3 4 4 5 4 3 4 3 6 4 3 3 4 5 4 4 5 5 4 5 5 5 5 4 4 4 4 4 3 3 2 2 1 1 1 1 2 2 2
3 4 1 6 5 3 0 1 3 3 3 4 4 6 3 2 2 2 3 3 2 3 3 3 3 5 5 6 5 4 4 4 3 3 3 2 2 2 2 2 1 2 2 2
4 4 5 7 7 4 4 5 3 4 3 5 7 7 6 4 3 3 2 3 3 3 4 4 4 5 5 6 6 6 5 4 4 3 3 3 3 3 3 2 2 2 2 2
4 3 5 7 7 5 6 7 6 6 7 8 7 7 7 6 6 5 4 3 3 3 4 5 4 4 5 5 5 5 5 4 4 3 3 4 4 3 3 2 2 2 2 2
2 3 2 4 5 4 6 8 7 7 6 7 6 7 6 5 3 3 4 5 4 4 5 5 5 5 5 5 6 5 5 5 4 4 3 3 3 2 2 3 2 2 1 2
1 2 1 4 5 3 6 6 5 4 4 5 7 8 4 3 4 5 6 6 7 7 6 6 6 6 6 6 6 6 5 4 4 4 3 3 2 2 2 2 2 2 2 2
5 3 2 2 1 5 7 3 4 4 4 3 3 4 4 4 5 4 4 6 7 6 6 6 6 6 5 5 5 5 4 4 4 4 3 3 3 2 2 2 2 2 2 2
7 6 3 3 3 7 5 3 2 3 4 2 3 3 2 1 1 3 2 4 6 6 5 6 7 6 5 4 5 5 5 4 4 4 4 4 3 3 2 3 3 2 2 2
3 5 4 3 3 6 6 5 3 2 4 4 2 3 2 1 0 5 4 3 3 3 3 4 4 3 4 4 4 5 5 5 5 5 5 4 4 4 4 4 3 2 2 3
2 1 3 5 5 7 5 4 2 2 6 4 3 4 4 4 5 5 3 2 2 2 2 3 3 4 4 4 4 4 5 6 6 5 4 4 4 4 4 3 2 2 2 2
4 3 3 4 4 7 4 1 4 6 3 2 1 2 2 3 2 2 2 1 1 0 0 2 3 3 3 4 5 4 5 5 4 4 3 4 4 3 2 3 2 2 2 2
4 5 5 6 7 5 3 4 3 3 1 1 1 1 1 1 2 2 2 2 1 1 1 1 2 3 2 4 5 5 5 2 3 3 3 3 3 2 2 3 2 2 2 2
4 0 1 3 6 5 4 2 1 1 1 2 2 1 1 1 2 2 2 2 2 1 2 1 2 2 3 3 4 4 3 3 3 3 3 2 2 1 1 1 2 2 3 3
5 2 2 5 6 5 4 3 2 2 1 1 2 1 1 2 2 2 2 2 3 3 2 2 3 3 3 3 3 3 3 3 3 3 3 2 2 2 2 1 2 3 3 4
4 5 5 6 5 4 7 6 4 2 2 2 2 2 2 1 2 2 2 2 3 3 2 2 2 3 3 3 4 3 3 4 4 3 3 3 2 2 2 1 2 3 3 3
Wind_Direction
23 80 198 217 204 200 174 171 209 237 235 166 192 220 226 203 178 186 193 194 199 211 208 178 167 149 136 132 130 131 127 125 109 101 110 112 105 91 84 77 86 88 86 85
34 279 238 220 216 158 151 168 228 271 267 191 200 245 240 210 197 190 187 194 201 207 197 173 164 153 152 150 149 147 143 139 128 122 129 138 142 127 125 63 79 96 96 93
190 248 253 183 170 154 238 195 206 228 323 14 81 320 286 256 216 195 188 193 197 196 187 184 172 168 164 164 164 163 158 145 134 119 99 82 63 50 38 26 16 73 100 101
244 263 231 188 238 185 241 228 204 196 123 265 160 263 281 252 237 217 209 196 201 198 185 182 178 173 180 183 169 162 157 150 143 129 122 123 127 147 215 217 233 255 109 121
262 244 185 224 240 196 221 228 213 212 177 252 264 191 283 251 239 237 222 207 202 197 183 184 184 182 184 175 165 166 157 154 156 149 144 140 143 175 172 139 138 165 325 106
246 243 200 215 242 197 141 46 29 41 82 269 234 189 275 228 217 223 218 212 197 192 186 183 180 169 174 162 157 160 156 163 160 155 156 156 160 161 150 163 189 220 254 273
325 309 276 185 38 1 73 81 26 358 0 258 238 186 247 245 227 206 202 203 194 183 176 175 170 170 171 164 163 157 152 158 161 161 169 174 176 173 182 192 197 193 197 215
246 285 272 226 173 185 166 140 159 203 230 276 306 225 252 272 247 203 188 185 182 179 177 180 180 175 172 166 160 153 153 152 150 154 174 176 175 181 194 198 196 197 202 207
190 263 291 267 177 143 143 180 176 158 210 256 275 284 303 353 17 88 158 162 181 191 190 185 178 171 167 165 163 165 162 159 159 154 147 159 173 183 201 211 206 208 208 201
173 256 290 303 55 46 150 149 92 123 179 250 280 264 252 274 289 286 190 184 187 184 187 181 176 175 170 170 168 164 162 166 166 158 166 173 186 199 191 179 192 203 207 203
144 179 302 352 189 218 120 121 122 140 167 176 250 268 229 217 223 205 201 197 187 184 185 185 179 176 163 155 153 157 167 164 164 168 175 175 199 203 180 170 184 182 174 171
150 134 244 261 264 222 178 176 149 166 234 188 201 265 274 228 230 196 195 198 192 189 188 184 173 163 159 159 166 173 178 178 183 181 174 179 187 165 157 196 199 179 165 166
123 111 37 337 335 2 119 194 165 156 154 181 195 260 309 358 295 239 200 195 186 183 167 156 160 169 176 177 179 183 187 190 192 177 173 175 177 175 190 216 215 194 182 176
122 137 178 209 232 237 261 270 226 157 193 226 223 245 283 295 279 269 213 191 180 177 174 170 176 182 186 189 186 185 195 190 186 182 180 189 200 197 201 207 207 205 195 184
115 185 216 237 245 229 240 253 243 217 210 214 234 232 246 246 238 232 207 189 176 174 184 186 189 196 195 193 190 189 191 188 183 182 192 210 214 206 198 201 211 209 196 192
92 193 236 272 269 264 266 256 245 231 221 221 234 251 249 250 230 222 205 192 197 200 201 199 197 201 204 200 192 190 192 192 180 183 200 209 207 207 205 209 211 201 209 204
203 162 183 264 286 320 270 246 224 225 223 201 224 240 245 229 219 221 216 205 210 209 205 201 205 210 209 205 194 192 197 186 176 188 202 203 195 199 218 216 201 203 211 206
177 162 168 233 338 245 247 247 208 213 239 220 222 243 236 225 233 235 209 202 212 213 208 209 208 209 209 201 191 184 178 176 180 190 206 209 197 203 220 204 206 225 218 206
178 162 163 170 226 268 285 281 218 210 257 243 228 262 288 275 14 329 272 212 208 210 210 212 211 206 198 190 185 173 176 179 184 199 210 211 199 200 210 214 222 228 216 226
113 132 149 168 203 239 249 269 263 164 255 281 249 236 242 89 286 272 273 237 219 215 204 206 203 180 179 190 169 167 182 187 202 209 210 209 198 195 208 216 222 237 221 227
57 91 174 198 225 255 261 282 62 175 250 271 231 220 217 214 227 242 251 232 215 220 213 184 170 175 189 183 165 176 189 205 213 207 202 202 201 200 206 205 208 216 221 230
196 192 203 181 214 252 261 167 180 222 245 258 243 243 233 244 258 253 219 211 215 241 192 169 170 189 189 175 172 193 212 218 202 186 191 199 203 207 206 195 212 213 192 198
202 195 200 200 222 253 248 217 222 179 189 238 226 264 197 239 263 260 206 190 209 224 216 200 177 184 192 189 182 198 223 208 175 171 187 197 198 212 202 198 211 221 205 205
284 226 186 263 269 281 279 272 296 239 223 246 242 227 192 228 253 268 230 209 209 210 208 200 164 177 207 209 200 208 210 180 164 174 185 185 182 200 209 220 219 219 222 222
244 245 249 264 281 309 294 282 278 295 312 341 323 293 217 198 251 250 244 240 222 221 219 199 196 206 217 207 209 213 194 172 176 186 190 188 189 192 198 231 237 232 234 231
216 201 205 236 245 242 265 271 266 259 268 264 291 309 297 210 214 233 239 246 231 223 214 214 216 221 223 207 207 209 189 175 178 190 196 196 196 200 204 223 294 297 283 287
Height
1511 1516 1521 1518 1516 1516 1519 1523 1525 1521 1515 1517 1521 1522 1519 1517 1518 1519 1519 1520 1522 1522 1523 1525 1526 1526 1527 1527 1528 1528 1529 1529 1529 1529 1529 1529 1529 1529 1529 1529 1529 1529 1529 1529
1517 1519 1512 1510 1511 1513 1517 1522 1523 1519 1514 1516 1521 1521 1517 1516 1515 1516 1517 1518 1519 1520 1521 1523 1524 1525 1526 1526 1527 1528 1528 1529 1529 1529 1529 1529 1529 1529 1529 1529 1529 1529 1529 1529
1518 1514 1508 1510 1512 1515 1518 1520 1521 1520 1516 1516 1520 1525 1520 1515 1514 1515 1515 1516 1517 1518 1519 1521 1522 1524 1525 1525 1526 1526 1527 1528 1528 1528 1529 1528 1529 1528 1528 1528 1528 1528 1528 1528
1514 1509 1508 1510 1512 1513 1519 1512 1513 1515 1523 1529 1525 1538 1524 1516 1514 1514 1514 1514 1515 1516 1518 1519 1521 1522 1523 1523 1524 1525 1526 1526 1527 1527 1527 1527 1527 1527 1527 1527 1527 1528 1527 1527
1514 1509 1509 1511 1510 1509 1512 1508 1511 1514 1521 1529 1527 1534 1528 1517 1517 1513 1511 1511 1512 1514 1516 1517 1519 1520 1521 1522 1523 1524 1524 1525 1526 1526 1526 1526 1526 1526 1526 1526 1527 1527 1527 1527
1509 1506 1506 1507 1505 1505 1506 1511 1515 1521 1527 1537 1528 1533 1530 1519 1513 1509 1508 1508 1509 1511 1513 1515 1517 1518 1519 1520 1521 1522 1523 1524 1524 1524 1525 1525 1524 1524 1525 1525 1525 1525 1525 1525
1514 1508 1504 1504 1507 1507 1510 1524 1539 1540 1544 1540 1526 1528 1525 1509 1504 1503 1504 1505 1507 1509 1510 1512 1514 1515 1517 1518 1519 1520 1521 1522 1522 1523 1523 1523 1523 1523 1523 1523 1523 1523 1523 1523
1524 1523 1507 1504 1507 1511 1513 1522 1540 1547 1547 1539 1526 1527 1516 1504 1501 1500 1501 1503 1505 1507 1508 1510 1511 1513 1514 1515 1517 1518 1519 1520 1520 1521 1521 1521 1521 1521 1521 1521 1521 1521 1521 1521
1524 1522 1506 1503 1502 1506 1514 1520 1520 1533 1535 1539 1533 1522 1510 1503 1501 1501 1501 1502 1504 1505 1506 1507 1509 1510 1512 1513 1515 1516 1517 1518 1518 1518 1519 1519 1519 1519 1519 1519 1519 1519 1519 1519
1514 1520 1510 1504 1503 1504 1507 1513 1525 1532 1540 1544 1534 1526 1521 1509 1505 1503 1502 1501 1502 1503 1504 1506 1507 1508 1510 1511 1513 1514 1515 1515 1516 1516 1516 1517 1517 1516 1516 1516 1516 1517 1517 1517
1511 1519 1516 1510 1510 1511 1511 1514 1520 1530 1533 1541 1541 1530 1507 1505 1502 1502 1501 1501 1501 1501 1502 1503 1505 1506 1508 1509 1511 1512 1513 1513 1514 1514 1514 1514 1514 1514 1514 1514 1514 1514 1514 1515
1510 1519 1523 1515 1506 1503 1506 1511 1518 1530 1532 1533 1537 1528 1500 1501 1500 1499 1500 1500 1500 1500 1501 1502 1503 1504 1505 1507 1508 1510 1510 1511 1511 1512 1512 1512 1512 1512 1512 1512 1512 1512 1512 1513
1509 1519 1528 1524 1518 1509 1509 1509 1512 1518 1526 1532 1535 1524 1500 1500 1500 1499 1499 1499 1499 1500 1500 1501 1501 1502 1503 1505 1506 1507 1508 1509 1509 1510 1509 1509 1510 1509 1509 1509 1510 1510 1510 1510
1505 1516 1523 1527 1521 1513 1512 1509 1509 1516 1526 1526 1522 1515 1505 1501 1500 1499 1498 1498 1498 1499 1499 1499 1500 1500 1502 1503 1504 1505 1506 1506 1507 1507 1507 1507 1507 1507 1507 1507 1507 1507 1507 1508
1505 1514 1513 1511 1507 1507 1507 1506 1505 1509 1512 1516 1511 1508 1502 1499 1498 1497 1497 1497 1497 1497 1497 1497 1497 1498 1499 1500 1502 1502 1503 1504 1504 1504 1505 1505 1505 1505 1505 1505 1505 1505 1505 1505
1506 1510 1510 1510 1504 1504 1504 1502 1501 1501 1502 1504 1504 1503 1496 1495 1495 1495 1495 1494 1494 1494 1494 1494 1495 1496 1497 1497 1498 1499 1500 1501 1502 1502 1502 1502 1503 1503 1503 1502 1503 1502 1502 1502
1508 1510 1514 1516 1507 1506 1509 1500 1499 1498 1497 1498 1502 1498 1493 1493 1493 1492 1492 1492 1492 1492 1492 1492 1492 1493 1494 1494 1495 1496 1497 1498 1499 1499 1499 1499 1499 1500 1500 1500 1500 1499 1499 1499
1506 1510 1516 1517 1513 1517 1504 1493 1492 1494 1493 1493 1492 1491 1490 1489 1489 1489 1489 1489 1489 1489 1489 1489 1490 1490 1491 1492 1493 1494 1495 1495 1495 1496 1496 1496 1496 1496 1496 1496 1496 1496 1496 1496
1498 1505 1514 1519 1518 1510 1498 1492 1491 1493 1494 1491 1490 1489 1489 1487 1487 1487 1487 1487 1486 1486 1486 1487 1487 1487 1487 1488 1489 1490 1491 1491 1492 1492 1493 1493 1493 1493 1493 1493 1493 1492 1492 1492
1496 1500 1510 1515 1515 1514 1499 1489 1486 1490 1494 1488 1487 1487 1487 1486 1490 1487 1484 1484 1484 1484 1484 1485 1485 1484 1484 1485 1486 1486 1487 1487 1488 1489 1489 1490 1490 1490 1490 1490 1490 1490 1489 1489
1503 1505 1509 1512 1513 1503 1492 1486 1486 1498 1495 1486 1485 1485 1485 1484 1484 1483 1482 1481 1481 1481 1481 1481 1481 1481 1481 1482 1483 1483 1483 1484 1485 1485 1486 1486 1487 1487 1487 1487 1487 1487 1486 1486
1502 1506 1508 1510 1511 1504 1487 1486 1489 1489 1484 1484 1483 1483 1482 1482 1481 1480 1479 1478 1478 1478 1478 1478 1478 1478 1478 1479 1480 1480 1480 1481 1481 1482 1482 1483 1483 1484 1484 1484 1484 1483 1483 1482
1498 1499 1499 1500 1498 1488 1484 1484 1484 1483 1483 1483 1482 1481 1481 1480 1479 1478 1477 1476 1476 1476 1476 1475 1475 1475 1476 1476 1477 1477 1477 1478 1478 1479 1479 1479 1480 1480 1481 1480 1480 1480 1479 1478
1495 1493 1494 1493 1488 1485 1484 1482 1482 1482 1482 1481 1480 1479 1479 1478 1477 1475 1474 1474 1474 1474 1473 1473 1473 1473 1473 1473 1473 1474 1475 1475 1475 1475 1476 1476 1476 1477 1477 1477 1477 1476 1475 1475
1493 1492 1492 1491 1486 1483 1481 1481 1481 1480 1480 1479 1478 1477 1476 1476 1475 1474 1473 1472 1472 1471 1471 1471 1470 1470 1470 1470 1470 1472 1472 1472 1472 1473 1473 1473 1473 1473 1473 1473 1473 1472 1472 1472
1488 1488 1490 1488 1483 1483 1480 1478 1478 1478 1477 1476 1475 1474 1474 1473 1472 1472 1471 1470 1469 1469 1468 1468 1468 1468 1467 1467 1468 1468 1468 1469 1469 1470 1470 1469 1469 1469 1470 1469 1470 1469 1469 1468